[[{"header":{"parameterUnit":"m.s-1","parameterCategory":1,"la1":30.2991,"la2":30.254,"lo1":-89.0895,"lo2":-89.0444,"dy":0.0017,"dx":0.0017,"nx":28,"ny":28,"refTime":"2024-08-14T09:00:00:Z","depth":0,"parameterNumber":2,"parameterNumberName":"U-component_of_WINDS"},"data":[0,0,0,0,0,0,0,0,0,0,0,0,0,0,0,0,0,0,0,0,0,0,0,0,0,0,0,0,0,0,0,0,0,0,0,0,0,0,0,0,0,0,0,0,0,0,0,0,0,0,0,0,0,0,0,0,0,0,-0.5781,-0.5782,0,-0.5865,-0.5866,-0.5867,-0.594,-0.5941,-0.5942,-0.5943,-0.6033,-0.6034,-0.6036,0,0,0,0,0,0,0,0,0,0,0,0,0,-0.5687,-0.5688,-0.5781,-0.5782,-0.5783,-0.5865,-0.5867,-0.5868,-0.594,-0.5941,-0.5942,-0.5943,-0.6032,-0.6034,-0.6036,0,0,0,0,0,0,0,0,0,0,0,0,0,-0.5745,-0.5689,-0.5781,-0.5829,-0.5834,-0.5865,-0.5867,-0.5868,-0.594,-0.5941,-0.5942,-0.5944,-0.6031,-0.6034,-0.6036,-0.6027,0,0,-0.6044,-0.6045,0,0,0,0,0,0,0,0,-0.5742,-0.5749,-0.5821,-0.5826,-0.5832,-0.5894,-0.5866,-0.5921,-0.594,-0.59,-0.5943,-0.5944,-0.5986,-0.5992,-0.6005,-0.6031,-0.6035,-0.6044,-0.6045,-0.6046,-0.6047,0,0,0,0,0,0,0,-0.5738,-0.5746,-0.5815,-0.5822,-0.5828,-0.5848,-0.5858,-0.5877,-0.5935,-0.5904,-0.5909,-0.5918,-0.5989,-0.6003,-0.6008,-0.6036,-0.6044,-0.6046,-0.6047,-0.6048,-0.6062,-0.6061,0,0,0,0,0,0,-0.5726,-0.5742,-0.5812,-0.5817,-0.5789,-0.5849,-0.586,-0.5873,-0.5935,-0.5946,-0.5917,-0.5921,-0.5998,-0.6005,-0.6011,-0.6005,-0.6046,-0.6049,-0.605,-0.6063,-0.6061,-0.606,0,0,0,0,0,0,-0.5723,-0.5731,-0.5808,-0.5781,-0.5792,-0.5849,-0.5863,-0.5874,-0.5887,-0.5945,-0.5956,-0.592,-0.5999,-0.6008,-0.6023,-0.6009,-0.605,-0.6052,-0.6064,-0.6062,-0.6061,-0.5992,0,0,0,0,0,0,-0.572,-0.573,-0.5726,-0.578,-0.5793,-0.5816,-0.5862,-0.5874,-0.5891,-0.5897,-0.5951,-0.5961,-0.6001,-0.6019,-0.6025,-0.6013,-0.6054,-0.6065,-0.6063,-0.6061,-0.5996,-0.5988,-0.5982,0,0,0,0,0,-0.5717,-0.5703,-0.5725,-0.5733,-0.5789,-0.5816,-0.5823,-0.5868,-0.589,-0.5887,-0.5924,-0.5959,-0.601,-0.602,-0.6027,-0.6016,-0.6066,-0.6064,-0.6061,-0.5999,-0.599,-0.5982,0,0,0,0,0,0,-0.5646,-0.5711,-0.5736,-0.5739,-0.5771,-0.5828,-0.5825,-0.5857,-0.5884,-0.5889,-0.5945,-0.5957,-0.5966,-0.5993,-0.6002,-0.6012,-0.6043,-0.6042,-0.5993,-0.5985,-0.5978,-0.5971,-0.6056,0,0,0,0,0,-0.5631,-0.5646,-0.5703,-0.57,-0.5715,-0.5767,-0.578,-0.5813,-0.5848,-0.5863,-0.5901,-0.5935,-0.596,-0.5974,-0.6,-0.6001,-0.6015,-0.5998,-0.5991,-0.5985,-0.5983,-0.5987,-0.5981,-0.6052,-0.6052,-0.6052,0,0,-0.5599,-0.5637,-0.5643,-0.5687,-0.5715,-0.5731,-0.5778,-0.5792,-0.5805,-0.5865,-0.5881,-0.5911,-0.5954,-0.5962,-0.5968,-0.5985,-0.5967,-0.5982,-0.5976,-0.5978,-0.5984,-0.5977,-0.5971,-0.605,-0.605,-0.6051,0,0,-0.555,-0.5579,-0.5581,-0.5609,-0.5651,-0.5687,-0.5687,-0.574,-0.5761,-0.5778,-0.5825,-0.5842,-0.5882,-0.591,-0.593,-0.5895,-0.5928,-0.5902,-0.5865,-0.5868,-0.5863,-0.5858,-0.5846,-0.584,-0.59,-0.59,-0.59,0,-0.5505,-0.5529,-0.5578,-0.5589,-0.5608,-0.5664,-0.5667,-0.5692,-0.5741,-0.5754,-0.5772,-0.5825,-0.5858,-0.5874,-0.5866,-0.588,-0.5883,-0.5895,-0.5859,-0.5855,-0.5852,-0.584,-0.5836,-0.5896,-0.5897,-0.5897,-0.5897,0,-0.5473,-0.5489,-0.5485,-0.553,-0.5549,-0.5556,-0.5608,-0.5622,-0.5654,-0.5687,-0.5706,-0.5747,-0.5782,-0.5789,-0.582,-0.5811,-0.582,-0.5849,-0.5881,-0.584,-0.5831,-0.5827,-0.5891,-0.5892,-0.5894,-0.5894,0,0,-0.5378,-0.5451,-0.5449,-0.5471,-0.5524,-0.5538,-0.5549,-0.5583,-0.5594,-0.5627,-0.5638,-0.5672,-0.5699,-0.5722,-0.5758,-0.5761,-0.5731,-0.5789,-0.5791,-0.5776,-0.5724,-0.5702,-0.5696,-0.5755,-0.5754,-0.5754,-0.5721,0,-0.5336,-0.5357,-0.5402,-0.541,-0.5426,-0.5481,-0.5491,-0.5526,-0.5559,-0.5579,-0.5617,-0.5639,-0.5673,-0.5687,-0.5693,-0.5733,-0.5721,-0.5736,-0.5767,-0.5767,-0.5752,-0.5691,-0.5666,-0.5633,-0.5717,-0.5717,-0.5716,0,-0.5289,-0.5318,-0.5326,-0.5379,-0.5388,-0.5396,-0.5432,-0.545,-0.5491,-0.5516,-0.5542,-0.5581,-0.5598,-0.563,-0.5655,-0.5664,-0.568,-0.5702,-0.5702,-0.5705,-0.5738,-0.5691,-0.5623,-0.5618,-0.5711,-0.5711,-0.5712,0,-0.5218,-0.526,-0.5271,-0.5288,-0.535,-0.5354,-0.5381,-0.5424,-0.5442,-0.5474,-0.5487,-0.5521,-0.5539,-0.5566,-0.5615,-0.5633,-0.5635,-0.567,-0.5657,-0.5655,-0.5653,-0.5652,-0.5585,-0.5665,-0.5665,-0.5665,-0.5665,0,-0.5166,-0.5169,-0.524,-0.5246,-0.5252,-0.5306,-0.5311,-0.5343,-0.5381,-0.5396,-0.5447,-0.5461,-0.5525,-0.5547,-0.5586,-0.5601,-0.561,-0.563,-0.564,-0.5625,-0.5622,-0.5635,-0.5638,-0.5664,-0.5664,-0.5664,-0.5664,0,-0.5086,-0.5134,-0.5149,-0.5208,-0.5223,-0.5224,-0.5275,-0.5285,-0.5322,-0.5341,-0.5348,-0.5407,-0.5436,-0.5488,-0.5531,-0.5558,-0.5565,-0.5583,-0.555,-0.5556,-0.5539,-0.554,-0.5477,-0.5472,-0.5555,-0.5554,-0.5554,0,-0.5049,-0.5052,-0.5111,-0.5124,-0.5149,-0.5169,-0.5188,-0.5243,-0.5261,-0.531,-0.5314,-0.5347,-0.5375,-0.5419,-0.5466,-0.5501,-0.552,-0.5496,-0.5525,-0.551,-0.5519,-0.5517,-0.5518,-0.5488,-0.5487,-0.5486,-0.5485,0,-0.4977,-0.5001,-0.5025,-0.5058,-0.5079,-0.5108,-0.514,-0.5148,-0.5211,-0.5229,-0.5258,-0.5281,-0.5326,-0.5358,-0.5399,-0.543,-0.5468,-0.5476,-0.5474,-0.5458,-0.5438,-0.5448,-0.553,-0.5476,-0.5477,-0.5478,-0.5478,-0.5479,-0.4917,-0.4923,-0.4966,-0.4992,-0.5022,-0.5051,-0.5062,-0.5102,-0.5126,-0.5166,-0.5198,-0.5225,-0.527,-0.533,-0.5358,-0.5381,-0.5399,-0.5397,-0.5397,-0.5395,-0.5389,-0.5436,-0.539,-0.539,-0.539,-0.539,-0.5391,0,-0.4847,-0.4878,-0.4901,-0.4944,-0.4965,-0.4999,-0.5037,-0.5053,-0.5076,-0.5113,-0.5141,-0.5176,-0.5208,-0.5259,-0.5296,-0.5305,-0.5324,-0.5313,-0.5312,-0.5319,-0.5371,-0.5368,-0.5297,-0.5297,-0.5297,-0.5297,-0.5297,-0.5297,-0.4813,-0.4825,-0.4855,-0.4883,-0.4915,-0.494,-0.4959,-0.4987,-0.5018,-0.5054,-0.508,-0.5113,-0.5158,-0.5199,-0.5231,-0.5245,-0.5256,-0.5239,-0.5259,-0.5306,-0.5315,-0.5323,-0.5321,-0.5242,-0.5242,-0.5206,-0.5205,-0.5205]},{"header":{"parameterUnit":"m.s-1","parameterCategory":1,"la1":30.2991,"la2":30.254,"lo1":-89.0895,"lo2":-89.0444,"dy":0.0017,"dx":0.0017,"nx":28,"ny":28,"refTime":"2024-08-14T09:00:00:Z","depth":0,"parameterNumber":3,"parameterNumberName":"V-component_of_WINDS"},"data":[0,0,0,0,0,0,0,0,0,0,0,0,0,0,0,0,0,0,0,0,0,0,0,0,0,0,0,0,0,0,0,0,0,0,0,0,0,0,0,0,0,0,0,0,0,0,0,0,0,0,0,0,0,0,0,0,0,0,2.5112,2.5112,0,2.5177,2.5177,2.5178,2.5259,2.5261,2.5262,2.5263,2.5326,2.5326,2.5327,0,0,0,0,0,0,0,0,0,0,0,0,0,2.5054,2.5055,2.5111,2.5112,2.5113,2.5177,2.5177,2.5178,2.5259,2.5261,2.5262,2.5264,2.5326,2.5326,2.5327,0,0,0,0,0,0,0,0,0,0,0,0,0,2.5095,2.5055,2.5111,2.5161,2.5166,2.5176,2.5178,2.5179,2.5259,2.5261,2.5263,2.5265,2.5325,2.5326,2.5327,2.5292,0,0,2.5329,2.5329,0,0,0,0,0,0,0,0,2.5092,2.5097,2.5153,2.5158,2.5164,2.5212,2.518,2.5216,2.5258,2.5223,2.5263,2.5265,2.5286,2.529,2.5298,2.5295,2.5298,2.5329,2.5329,2.533,2.533,0,0,0,0,0,0,0,2.509,2.5095,2.5137,2.5154,2.516,2.5179,2.5187,2.5188,2.5243,2.5227,2.5233,2.524,2.5289,2.5297,2.53,2.5299,2.5329,2.533,2.533,2.533,2.527,2.5268,0,0,0,0,0,0,2.508,2.5092,2.5135,2.5139,2.5132,2.5179,2.5188,2.5194,2.5243,2.5253,2.5238,2.5243,2.5295,2.5299,2.5302,2.5264,2.533,2.533,2.5331,2.5272,2.527,2.5268,0,0,0,0,0,0,2.5078,2.5083,2.5133,2.5117,2.5125,2.5178,2.5185,2.5195,2.5203,2.5252,2.5262,2.5236,2.5297,2.5302,2.5294,2.5268,2.5331,2.5331,2.5275,2.5272,2.5269,2.5188,0,0,0,0,0,0,2.5076,2.5082,2.507,2.5116,2.5125,2.5124,2.5183,2.5194,2.5204,2.5211,2.5252,2.5261,2.5299,2.5293,2.5295,2.527,2.5332,2.5277,2.5273,2.527,2.5193,2.5183,2.5174,0,0,0,0,0,2.5074,2.5043,2.5069,2.5073,2.5112,2.5122,2.5127,2.5172,2.5202,2.5189,2.5221,2.526,2.5271,2.5291,2.5294,2.5269,2.5279,2.5274,2.527,2.5198,2.5185,2.5174,0,0,0,0,0,0,2.499,2.505,2.5079,2.5063,2.5087,2.5136,2.5121,2.5157,2.5172,2.5178,2.5233,2.5241,2.5227,2.5248,2.527,2.5238,2.5281,2.5277,2.5225,2.5213,2.5203,2.5197,2.5332,0,0,0,0,0,2.497,2.4975,2.5027,2.5008,2.5018,2.5068,2.5074,2.5107,2.5133,2.5144,2.5175,2.5198,2.5207,2.5211,2.5222,2.5198,2.5207,2.5182,2.5172,2.5164,2.5159,2.5147,2.5136,2.5253,2.5253,2.5253,0,0,2.4928,2.4962,2.4961,2.4992,2.5014,2.5017,2.5076,2.5076,2.5078,2.5143,2.5138,2.5162,2.5192,2.5175,2.517,2.5192,2.5129,2.5158,2.5151,2.515,2.5141,2.513,2.512,2.525,2.525,2.5251,0,0,2.4853,2.4879,2.4866,2.4888,2.4922,2.4955,2.4952,2.4996,2.5015,2.5011,2.5061,2.5064,2.5078,2.5097,2.5108,2.5042,2.5078,2.5044,2.4991,2.4979,2.497,2.4962,2.4937,2.4927,2.504,2.5039,2.5039,0,2.4795,2.4802,2.4854,2.4851,2.4863,2.4925,2.4911,2.493,2.4965,2.4971,2.4996,2.5016,2.504,2.5029,2.5013,2.5021,2.5018,2.5038,2.4967,2.496,2.4953,2.493,2.492,2.5035,2.5035,2.5036,2.5036,0,2.473,2.4734,2.4719,2.4753,2.4763,2.4755,2.4805,2.4809,2.4842,2.4872,2.4867,2.4899,2.4918,2.4918,2.4949,2.4911,2.4924,2.4958,2.5001,2.4937,2.4916,2.4907,2.5029,2.503,2.5031,2.5033,0,0,2.46,2.4665,2.4658,2.4675,2.4718,2.4721,2.4716,2.4736,2.4738,2.4761,2.4756,2.4768,2.48,2.4813,2.4847,2.4837,2.4781,2.4872,2.4873,2.4852,2.474,2.4712,2.4701,2.4806,2.4805,2.4803,2.4737,0,2.4531,2.4526,2.4574,2.4555,2.4559,2.4619,2.4615,2.464,2.4669,2.4675,2.4707,2.4714,2.4756,2.4765,2.4757,2.4789,2.4758,2.4795,2.4801,2.48,2.4789,2.4691,2.4662,2.4597,2.4729,2.4727,2.4727,0,2.4449,2.4469,2.4451,2.4496,2.45,2.4494,2.4516,2.4523,2.4553,2.4575,2.459,2.463,2.4627,2.4671,2.4667,2.469,2.4696,2.4712,2.4711,2.4711,2.4758,2.4686,2.4578,2.4567,2.4714,2.4715,2.4716,0,2.4354,2.4377,2.4369,2.4382,2.4434,2.4429,2.445,2.4483,2.4492,2.4511,2.4517,2.4535,2.4544,2.4557,2.4601,2.4629,2.4591,2.4638,2.4608,2.4606,2.4595,2.4595,2.4483,2.4602,2.4602,2.4602,2.4603,0,2.4271,2.4257,2.4328,2.4322,2.4309,2.4364,2.4349,2.4376,2.4405,2.4405,2.4459,2.4458,2.4517,2.4523,2.4557,2.4548,2.4552,2.4568,2.4577,2.4562,2.456,2.4565,2.457,2.46,2.46,2.4601,2.4601,0,2.4161,2.4208,2.4204,2.4255,2.4267,2.4255,2.4298,2.4295,2.4329,2.4329,2.4332,2.4383,2.4393,2.4439,2.4458,2.4482,2.446,2.4479,2.445,2.4455,2.4421,2.4423,2.4308,2.4295,2.4423,2.4422,2.4421,0,2.4104,2.4095,2.4146,2.4151,2.417,2.4177,2.4187,2.4241,2.4249,2.4284,2.4276,2.4291,2.4305,2.4317,2.4356,2.4371,2.439,2.4349,2.4392,2.4378,2.4387,2.4386,2.4385,2.4338,2.4336,2.4335,2.4334,0,2.3996,2.402,2.4033,2.4054,2.4065,2.4084,2.4106,2.4107,2.4167,2.4173,2.4185,2.4196,2.4217,2.423,2.4253,2.4274,2.4313,2.4321,2.4314,2.4297,2.428,2.4287,2.4422,2.4322,2.4323,2.4324,2.4325,2.4325,2.391,2.3905,2.394,2.3952,2.3975,2.3995,2.3995,2.4029,2.404,2.4062,2.4094,2.4101,2.4132,2.4166,2.4185,2.419,2.4212,2.4203,2.4201,2.4197,2.4189,2.4281,2.4195,2.4195,2.4195,2.4196,2.4196,0,2.3803,2.3829,2.3841,2.3871,2.3881,2.392,2.3947,2.3952,2.3958,2.3984,2.3998,2.401,2.4024,2.4064,2.4082,2.4078,2.4097,2.4081,2.408,2.4084,2.4169,2.4172,2.4065,2.4065,2.4066,2.4066,2.4066,2.4066,2.3749,2.3742,2.3771,2.3776,2.3802,2.381,2.3822,2.3841,2.3862,2.3874,2.3887,2.3914,2.3946,2.3966,2.398,2.3991,2.3994,2.3972,2.3989,2.4066,2.4078,2.409,2.4093,2.3972,2.3972,2.3904,2.3903,2.3903]}]]